Date String (YYYY-MM-DD hh:mm:ss) UTC,Instrument flags,Ambient pressure (hPa),Sample flow (lpm),Bypass flow (lpm),Sample temperature (°C),Ambient temperature (°C),ASC tube jacket temperature (°C),LED temperature (°C),Box temperature (°C),Sample RH (%),Span deviation,Mass concentration (μg/m³),Mass concentration (μg/m³),Mass concentration (μg/m³)
DateTimeUTC,F1_M11,P_M11,Q1_M11,Q2_M11,T1_M11,T2_M11,T3_M11,T4_M11,T5_M11,U1_M11,ZSPAN_M11,X0_M11,X2_M11,X1_M11
2021-09-20 11:00:00,,0825.3,5.00,0.00,29.7,28.9,00.0,38.8,31.4,15.9,0000.0,0002.24,0000.47,0000.33
2021-09-20 11:01:00,,0825.2,4.99,0.00,29.7,28.9,00.0,38.8,31.5,16.1,0000.0,0002.22,0000.46,0000.34
2021-09-20 11:02:00,,0824.9,5.01,0.00,29.7,28.9,00.0,38.8,31.5,15.9,0000.0,0002.24,0000.47,0000.34
2021-09-20 11:03:00,,0824.9,5.00,0.00,29.7,28.9,00.0,38.8,31.5,15.7,0000.0,0001.86,0000.48,0000.35
2021-09-20 11:04:00,,0824.9,4.98,0.00,29.8,29.0,00.0,38.8,31.6,15.4,0000.0,0001.78,0000.49,0000.36
2021-09-20 11:05:00,,0824.7,5.00,0.00,29.8,29.0,00.0,38.8,31.5,15.4,0000.0,0001.36,0000.52,0000.37
2021-09-20 11:06:00,,0824.7,5.01,0.00,29.8,29.0,00.0,38.8,31.5,15.4,0000.0,0001.13,0000.57,0000.41
2021-09-20 11:07:00,,0824.6,4.99,0.00,29.8,29.0,00.0,38.8,31.6,15.4,0000.0,0001.18,0000.61,0000.45
2021-09-20 11:08:00,,0824.6,4.99,0.00,29.8,29.0,00.0,38.8,31.6,15.3,0000.0,0001.30,0000.66,0000.48
2021-09-20 11:09:00,,0824.6,5.01,0.00,29.8,29.0,00.0,38.9,31.5,15.5,0000.0,0001.25,0000.66,0000.51
2021-09-20 11:10:00,,0824.8,4.99,0.00,29.8,29.0,00.0,38.9,31.6,15.6,0000.0,0001.25,0000.70,0000.53
2021-09-20 11:11:00,,0825.0,4.99,0.00,29.8,29.0,00.0,38.9,31.5,15.7,0000.0,0001.40,0000.76,0000.54
2021-09-20 11:12:00,,0824.9,5.01,0.00,29.7,28.9,00.0,38.9,31.5,15.7,0000.0,0001.52,0000.79,0000.55
2021-09-20 11:13:00,,0824.9,4.99,0.00,29.7,28.9,00.0,38.9,31.4,15.8,0000.0,0001.65,0000.84,0000.58
2021-09-20 11:14:00,,0825.0,5.01,0.00,29.7,28.8,00.0,38.8,31.4,15.3,0000.0,0001.78,0000.96,0000.69
2021-09-20 11:15:00,,0824.9,5.00,0.00,29.6,28.7,00.0,38.8,31.3,15.2,0000.0,0002.07,0001.18,0000.87
2021-09-20 11:16:00,,0824.8,5.01,0.00,29.6,28.6,00.0,38.8,31.2,15.3,0000.0,0002.47,0001.39,0001.06
2021-09-20 11:17:00,,0824.7,4.99,0.00,29.5,28.6,00.0,38.8,31.2,15.2,0000.0,0004.17,0001.56,0001.22
2021-09-20 11:18:00,,0824.8,5.00,0.00,29.5,28.6,00.0,38.8,31.2,15.0,0000.0,0005.45,0001.82,0001.40
2021-09-20 11:19:00,,0824.9,5.00,0.00,29.5,28.6,00.0,38.8,31.2,14.9,0000.0,0007.37,0002.15,0001.59
2021-09-20 11:20:00,,0825.0,5.00,0.00,29.5,28.6,00.0,38.7,31.2,15.0,0000.0,0007.60,0002.43,0001.77
2021-09-20 11:21:00,,0825.0,5.00,0.00,29.5,28.5,00.0,38.7,31.2,15.2,0000.0,0007.80,0002.63,0001.93
2021-09-20 11:22:00,,0824.9,5.02,0.00,29.4,28.5,00.0,38.7,31.1,15.0,0000.0,0007.99,0002.81,0002.10
2021-09-20 11:23:00,,0824.9,5.00,0.00,29.4,28.5,00.0,38.7,31.0,15.1,0000.0,0008.03,0002.96,0002.23
2021-09-20 11:24:00,,0824.9,5.01,0.00,29.4,28.4,00.0,38.7,31.0,15.1,0000.0,0008.08,0003.09,0002.36
2021-09-20 11:25:00,,0824.9,4.99,0.00,29.4,28.5,00.0,38.6,31.0,15.1,0000.0,0008.81,0003.14,0002.42
2021-09-20 11:26:00,,0824.9,5.00,0.00,29.4,28.4,00.0,38.6,31.0,15.2,0000.0,0009.11,0003.14,0002.39
2021-09-20 11:27:00,,0824.9,5.01,0.00,29.4,28.5,00.0,38.6,31.0,15.1,0000.0,0009.12,0003.14,0002.35
2021-09-20 11:28:00,,0824.9,5.00,0.00,29.4,28.5,00.0,38.6,31.0,15.0,0000.0,0008.50,0003.16,0002.35
2021-09-20 11:29:00,,0824.9,5.00,0.00,29.4,28.4,00.0,38.6,31.0,15.0,0000.0,0008.24,0003.15,0002.34
2021-09-20 11:30:00,,0824.9,4.99,0.00,29.4,28.4,00.0,38.6,31.0,15.1,0000.0,0007.03,0003.06,0002.30
2021-09-20 11:31:00,,0824.9,5.01,0.00,29.4,28.4,00.0,38.6,31.0,15.2,0000.0,0006.81,0002.92,0002.24
2021-09-20 11:32:00,,0824.9,4.99,0.00,29.4,28.4,00.0,38.6,31.0,15.1,0000.0,0007.32,0002.88,0002.21
2021-09-20 11:33:00,,0825.0,5.01,0.00,29.4,28.5,00.0,38.6,31.0,15.1,0000.0,0007.58,0002.85,0002.20
2021-09-20 11:34:00,,0825.1,5.00,0.00,29.4,28.5,00.0,38.6,31.1,15.1,0000.0,0007.64,0002.88,0002.20
2021-09-20 11:35:00,,0825.2,5.01,0.00,29.4,28.5,00.0,38.6,31.1,15.1,0000.0,0007.71,0002.89,0002.19
2021-09-20 11:36:00,,0825.1,5.00,0.00,29.4,28.5,00.0,38.6,31.1,15.1,0000.0,0007.45,0002.87,0002.18
2021-09-20 11:37:00,,0825.1,4.99,0.00,29.4,28.5,00.0,38.6,31.1,15.2,0000.0,0007.69,0002.84,0002.17
2021-09-20 11:38:00,,0825.1,5.01,0.00,29.4,28.5,00.0,38.6,31.1,15.1,0000.0,0007.62,0002.78,0002.16
2021-09-20 11:39:00,,0825.2,5.01,0.00,29.5,28.5,00.0,38.6,31.1,15.2,0000.0,0007.13,0002.68,0002.11
2021-09-20 11:40:00,,0825.2,4.99,0.00,29.5,28.5,00.0,38.6,31.1,15.1,0000.0,0006.91,0002.60,0002.07
2021-09-20 11:41:00,,0825.2,5.00,0.00,29.5,28.5,00.0,38.6,31.1,14.5,0000.0,0006.85,0002.61,0002.10
2021-09-20 11:42:00,,0825.2,5.01,0.00,29.5,28.5,00.0,38.6,31.1,14.3,0000.0,0007.12,0002.78,0002.21
2021-09-20 11:43:00,,0825.2,4.99,0.00,29.5,28.5,00.0,38.6,31.1,14.2,0000.0,0007.11,0002.96,0002.34
2021-09-20 11:44:00,,0825.2,5.00,0.00,29.4,28.5,00.0,38.6,31.1,14.3,0000.0,0007.22,0003.13,0002.47
2021-09-20 11:45:00,,0825.2,5.01,0.00,29.4,28.5,00.0,38.6,31.1,14.8,0000.0,0007.37,0003.18,0002.55
2021-09-20 11:46:00,,0825.2,5.00,0.00,29.4,28.5,00.0,38.6,31.1,15.0,0000.0,0007.27,0003.18,0002.61
2021-09-20 11:47:00,,0825.2,4.99,0.00,29.4,28.4,00.0,38.6,31.0,15.1,0000.0,0006.72,0003.21,0002.65
2021-09-20 11:48:00,,0825.2,5.02,0.00,29.3,28.4,00.0,38.6,31.0,15.1,0000.0,0005.57,0003.24,0002.69
2021-09-20 11:49:00,,0825.2,5.00,0.00,29.3,28.4,00.0,38.6,31.0,15.2,0000.0,0005.70,0003.27,0002.73
2021-09-20 11:50:00,,0825.2,5.00,0.00,29.3,28.4,00.0,38.6,31.0,15.2,0000.0,0005.77,0003.30,0002.77
2021-09-20 11:51:00,,0825.3,5.00,0.00,29.3,28.4,00.0,38.6,30.9,15.4,0000.0,0005.83,0003.32,0002.80
2021-09-20 11:52:00,,0825.3,5.01,0.00,29.3,28.4,00.0,38.5,31.0,15.2,0000.0,0005.88,0003.32,0002.80
2021-09-20 11:53:00,,0825.3,5.00,0.00,29.2,28.4,00.0,38.5,30.9,15.2,0000.0,0005.77,0003.27,0002.73
2021-09-20 11:54:00,,0825.3,5.00,0.00,29.2,28.4,00.0,38.5,30.9,15.2,0000.0,0005.68,0003.17,0002.62
2021-09-20 11:55:00,,0825.3,4.99,0.00,29.2,28.4,00.0,38.5,30.9,14.7,0000.0,0004.84,0003.14,0002.57
2021-09-20 11:56:00,,0825.3,5.01,0.00,29.2,28.4,00.0,38.5,31.0,14.6,0000.0,0005.16,0003.20,0002.63
2021-09-20 11:57:00,,0825.4,4.99,0.00,29.2,28.4,00.0,38.5,30.9,14.8,0000.0,0005.51,0003.28,0002.72
2021-09-20 11:58:00,,0825.3,5.01,0.00,29.2,28.4,00.0,38.5,31.0,15.0,0000.0,0005.59,0003.31,0002.73
2021-09-20 11:59:00,,0825.4,4.99,0.00,29.2,28.4,00.0,38.5,31.0,14.8,0000.0,0005.62,0003.34,0002.80
